Printer-friendly version

IAU Minor Planet Center

Minor Planet Center

MPEC 2001-F14: 2001 FA1

The following Minor Planet Electronic Circular may be linked-to from your own Web pages, but must not otherwise be redistributed electronically.


Read MPEC 2001-F13 Read MPEC 2001-F15


M.P.E.C. 2001-F14                                Issued 2001 Mar. 19, 19:33 UT

     The Minor Planet Electronic Circulars contain information on unusual
         minor planets and routine data on comets.  They are published
   on behalf of Commission 20 of the International Astronomical Union by the
          Minor Planet Center, Smithsonian Astrophysical Observatory,
                          Cambridge, MA 02138, U.S.A.

             Prepared using the Tamkin Foundation Computer Network

                              MPC@CFA.HARVARD.EDU
          URL http://cfa-www.harvard.edu/iau/mpc.html  ISSN 1523-6714

                                   2001 FA1

Observations:
     K01F01A* C2001 03 17.24663 09 41 16.15 -02 18 59.9          16.7        704
     K01F01A  C2001 03 17.26062 09 41 18.09 -02 17 14.4          17.2        704
     K01F01A  C2001 03 17.27491 09 41 20.04 -02 15 26.5          18.0        704
     K01F01A  C2001 03 17.28791 09 41 21.92 -02 13 48.8          17.6        704
     K01F01A  C2001 03 17.30152 09 41 23.74 -02 12 05.5          18.6        704
     K01F01A  C2001 03 18.10869 09 43 26.07 -00 31 19.0          16.8 R      854
     K01F01A  C2001 03 18.10965 09 43 26.16 -00 31 12.1          16.3 R      854
     K01F01A  C2001 03 18.11060 09 43 26.40 -00 31 05.2                      854
     K01F01A  C2001 03 18.13076 09 43 27.15 -00 28 06.1          17.4 V      859
     K01F01A  C2001 03 18.13247 09 43 27.38 -00 27 54.5          17.9 V      859
     K01F01A  C2001 03 18.13412 09 43 27.62 -00 27 41.6          17.4 V      859
     K01F01A  C2001 03 18.13575 09 43 27.82 -00 27 29.7          17.2 V      859
     K01F01A 4C2001 03 18.17376 09 43 35.47 -00 23 14.9                      673
     K01F01A  C2001 03 18.17547 09 43 35.31 -00 23 01.8          16.7        704
     K01F01A  C2001 03 18.17684 09 43 35.51 -00 22 51.5          16.3        704
     K01F01A 4C2001 03 18.17938 09 43 36.20 -00 22 32.8                      673
     K01F01A 4C2001 03 18.18141 09 43 36.45 -00 22 18.2                      673
     K01F01A  C2001 03 18.18836 09 43 37.09 -00 21 25.9          16.3        704
     K01F01A  C2001 03 18.19264 09 43 37.72 -00 20 54.4          16.5        704
     K01F01A  C2001 03 18.20170 09 43 38.95 -00 19 46.8          16.4        704
     K01F01A  C2001 03 18.20530 09 43 39.47 -00 19 19.8          16.6        704
     K01F01A  C2001 03 18.21458 09 43 40.73 -00 18 11.3          16.2        704
     K01F01A  C2001 03 18.21797 09 43 41.22 -00 17 46.1          16.4        704
     K01F01A  C2001 03 18.22747 09 43 42.52 -00 16 35.8          16.1        704
     K01F01A  C2001 03 18.23120 09 43 43.07 -00 16 08.3          16.2        704
     K01F01A  C2001 03 18.36087 09 44 03.35 +00 00 32.8          16.0 R      474
     K01F01A  C2001 03 18.36666 09 44 04.17 +00 01 15.7          16.0 R      474
     K01F01A  C2001 03 18.36897 09 44 04.50 +00 01 32.8          16.0 R      474
     K01F01A  C2001 03 18.37499 09 44 05.33 +00 02 16.6          16.0 R      474
     K01F01A  C2001 03 18.42221 09 44 11.98 +00 08 06.0          16.3 R      474
     K01F01A  C2001 03 18.42661 09 44 12.64 +00 08 40.4          16.4 R      474
     K01F01A  C2001 03 18.44790 09 44 15.60 +00 11 16.4          16.0 R      474
     K01F01A  C2001 03 18.44928 09 44 15.79 +00 11 26.7          16.0 R      474
     K01F01A  C2001 03 18.45588 09 44 16.73 +00 12 15.5          16.0 R      474
     K01F01A  C2001 03 18.49852 09 44 23.20 +00 17 25.1          17.9        422
     K01F01A  C2001 03 18.49958 09 44 23.34 +00 17 32.9          17.8        422
     K01F01A  C2001 03 18.50028 09 44 23.44 +00 17 38.2          17.9        422
     K01F01A  C2001 03 18.55426 09 44 30.58 +00 24 22.0          16.1 R      474
     K01F01A  C2001 03 18.55565 09 44 30.78 +00 24 32.4          16.2 R      474
     K01F01A  C2001 03 18.55796 09 44 31.10 +00 24 49.2          15.9 R      474
     K01F01A  C2001 03 18.78273 09 45 06.47 +00 51 37.6                      557
     K01F01A  C2001 03 18.78350 09 45 06.56 +00 51 43.3                      557
     K01F01A  C2001 03 18.78428 09 45 06.67 +00 51 49.1                      557
     K01F01A  C2001 03 18.78583 09 45 06.90 +00 52 00.4                      557
     K01F01A  C2001 03 18.78661 09 45 07.01 +00 52 06.2                      557
     K01F01A  C2001 03 18.78738 09 45 07.13 +00 52 11.7                      557
     K01F01A  C2001 03 18.80068 09 45 09.44 +00 53 53.8          16.4 R      946
     K01F01A  C2001 03 18.80222 09 45 09.65 +00 54 04.6                      946
     K01F01A  C2001 03 18.80856 09 45 10.53 +00 54 51.2                      176
     K01F01A  C2001 03 18.81030 09 45 10.82 +00 55 05.1          16.3 R      176
     K01F01A  C2001 03 18.81247 09 45 11.06 +00 55 20.5                      946
     K01F01A  C2001 03 18.81435 09 45 11.39 +00 55 35.5                      176
     K01F01A  C2001 03 18.81806 09 45 11.90 +00 56 02.3          16.1 R      176
     K01F01A  C2001 03 18.93131 09 45 27.91 +01 09 52.7                      952
     K01F01A  C2001 03 18.93389 09 45 28.23 +01 10 11.2                      952
     K01F01A  C2001 03 18.93832 09 45 28.83 +01 10 44.0                      952
     K01F01A  C2001 03 19.08646 09 45 52.02 +01 28 48.0          15.3 R      850
     K01F01A  C2001 03 19.10417 09 45 54.48 +01 30 57.0          15.0 R      850
     K01F01A  C2001 03 19.12847 09 45 57.90 +01 33 54.8          15.3 R      850
     K01F01A  C2001 03 19.14514 09 46 00.20 +01 35 55.1          15.2 R      850
     K01F01A  C2001 03 19.15694 09 46 01.88 +01 37 22.0          15.5 R      850
     K01F01A  C2001 03 19.20134 09 46 09.06 +01 42 46.3                      670
     K01F01A  C2001 03 19.23440 09 46 13.71 +01 46 46.8                      670
     K01F01A  C2001 03 19.28404 09 46 20.63 +01 52 47.6                      670
     K01F01A  C2001 03 19.31135 09 46 24.09 +01 56 04.9          16.2        854
     K01F01A  C2001 03 19.31289 09 46 24.31 +01 56 17.0                      854
     K01F01A  C2001 03 19.31443 09 46 24.37 +01 56 29.2                      854
     K01F01A  C2001 03 19.34571 09 46 29.26 +02 00 14.4                      670
     K01F01A  C2001 03 19.42364 09 46 42.75 +02 10 13.2          16.3 R      422
     K01F01A  C2001 03 19.42452 09 46 42.88 +02 10 19.6          16.3 R      422
     K01F01A  C2001 03 19.42501 09 46 42.94 +02 10 23.1          16.3 R      422

Observer details:
176 Observatori Astronomic de Consell.  Observers A. Lopez, R. Pacheco.
    0.2-m Schmidt-Cassegrain + CCD.
422 Loomberah.  Observer G. J. Garradd.  0.45-m f/5.4 reflector + CCD.
474 Mount John Observatory, Lake Tekapo.  Observer A. C. Gilmore.
    1.0-m f/7.7 reflector + CCD.
557 Ondrejov.  Observer L. Sarounova.  0.65-m f/3.6 reflector + CCD.
670 Camarillo.  Observer J. E. Rogers.  0.30-m f/6.7 Helin Telescope + CCD.
673 Table Mountain Observatory, Wrightwood.  Observers D. Esqueda, A. Esqueda,
    T. Ha.  Measurer M. Hicks.  0.6-m reflector + CCD.
704 Lincoln Laboratory ETS, New Mexico.  Observers M. Blythe, F. Shelly,
    M. Bezpalko, R. Huber, L. Manguso, S. Adams.  Measurers J. Stuart,
    R. Sayer, J. B. Evans, H. Viggh.  1.0-m f/2.15 reflector + CCD.
850 Cordell-Lorenz Observatory, Sewanee.  Observer D. T. Durig.  0.3-m f/5.75
    Schmidt-Cassegrain + CCD.
854 Sabino Canyon Observatory, Tucson.  Observer J. E. McGaha.  0.30-m f/6.1
    Schmidt-Cassegrain + CCD.
859 Wykrota Observatory-CEAMIG.  Observers C. Jacques, A. Campos, L. Duczmal,
    E. Pimentel.  0.3-m f/3.3 Schmidt-Cassegrain + CCD.
946 Ametlla de Mar.  Observer J. Nomen.  0.40-m f/2.0 Schmidt + CCD.
952 Marxuquera.  Observer J. J. Gomez.  0.25-m f/3.3 Schmidt-Cassegrain + CCD.

Orbital elements:
2001 FA1
Epoch 2001 Mar. 12.0 TT = JDT 2451980.5                 Spahr
M  10.45070              (2000.0)            P               Q
n   0.38798702     Peri.  326.45900     -0.79857840     -0.60060292
a   1.8617638      Node   175.91615     +0.59734914     -0.78283986
e   0.3540505      Incl.   33.54466     -0.07380073     +0.16259730
P   2.54           H   17.6           G   0.15
From 71 observations 2001 Mar. 17-19.

Ephemeris:
2001 FA1                 a,e,i = 1.86, 0.35, 34                  q = 1.2026
Date    TT    R. A. (2000) Decl.     Delta      r     Elong.  Phase     V
2001 03 12    09 28.54   -13 31.6    0.272    1.228   145.7    27.1    16.4
2001 03 22    09 53.19   +07 10.6    0.293    1.250   146.2    26.3    16.6
2001 04 01    10 18.76   +22 34.9    0.354    1.278   135.8    33.0    17.3
2001 04 11    10 44.02   +31 43.2    0.442    1.310   125.7    38.4    18.0
2001 04 21    11 08.14   +36 30.8    0.544    1.347   117.7    41.3    18.5
2001 05 01    11 30.98   +38 36.9    0.653    1.387   111.5    42.5    19.0
2001 05 11    11 52.58   +39 03.0    0.765    1.430   106.5    42.6    19.4
2001 05 21    12 13.10   +38 24.3    0.878    1.475   102.3    42.1    19.8
2001 05 31    12 32.80   +37 01.8    0.993    1.521    98.6    41.2    20.1
2001 06 10    12 51.91   +35 09.6    1.107    1.568    95.2    40.2    20.4
2001 06 20    13 10.56   +32 56.6    1.221    1.616    92.0    38.9    20.6
2001 06 30    13 28.97   +30 29.3    1.335    1.663    89.0    37.7    20.8
2001 07 10    13 47.23   +27 53.2    1.449    1.711    86.0    36.4    21.1
2001 07 20    14 05.43   +25 12.1    1.563    1.758    83.0    35.0    21.2
2001 07 30    14 23.68   +22 29.2    1.677    1.804    80.0    33.7    21.4
2001 08 09    14 42.01   +19 47.7    1.792    1.849    77.0    32.3    21.6
2001 08 19    15 00.48   +17 09.9    1.907    1.894    73.8    30.9    21.7
2001 08 29    15 19.12   +14 37.9    2.022    1.937    70.6    29.5    21.8
2001 09 08    15 37.94   +12 13.8    2.137    1.979    67.3    28.0    22.0

Timothy B. Spahr             (C) Copyright 2001 MPC           M.P.E.C. 2001-F14

Read MPEC 2001-F13 Read MPEC 2001-F15


Our Web policy. Index to the CBAT/MPC/ICQ pages.


Valid HTML 4.01!